AXB786 VOBL-VOMM

Flight info

Callsign AXB786
Flight time 0h 31m
Altitude 19000
Route BIA W116 MMV
Aircraft B38M/M-SDE1FGHILORVWXY/HB1

Departure

Time 2026-05-08 17:48
Airport Kempegowda International Airport Bengaluru (VOBL)

Arrival

Time 2026-05-08 18:19
Airport Chennai International Airport (VOMM)
Time Latitude Longitude Altitude Speed Heading
2026-05-08 17:22 13.20172 77.70877 3014 ft 0 kts 180°
2026-05-08 17:34 13.20193 77.70878 3017 ft 4 kts 188°
2026-05-08 17:35 13.20218 77.70885 3020 ft 4 kts 207°
2026-05-08 17:35 13.20238 77.70902 3019 ft 4 kts 241°
2026-05-08 17:35 13.20243 77.70918 3018 ft 0 kts 270°
2026-05-08 17:38 13.20243 77.70903 3014 ft 4 kts 270°
2026-05-08 17:38 13.20243 77.70854 3014 ft 10 kts 270°
2026-05-08 17:39 13.20244 77.70764 3014 ft 16 kts 270°
2026-05-08 17:39 13.20245 77.70633 3014 ft 21 kts 270°
2026-05-08 17:39 13.20246 77.70464 3014 ft 19 kts 270°
2026-05-08 17:39 13.20298 77.70394 3014 ft 14 kts 355°
2026-05-08 17:40 13.20401 77.70394 3014 ft 16 kts
2026-05-08 17:40 13.20513 77.70377 3014 ft 17 kts 323°
2026-05-08 17:40 13.20535 77.70260 3014 ft 18 kts 270°
2026-05-08 17:40 13.20535 77.70125 3014 ft 20 kts 270°
2026-05-08 17:41 13.20537 77.69976 3014 ft 22 kts 270°
2026-05-08 17:41 13.20538 77.69838 3014 ft 24 kts 270°
2026-05-08 17:41 13.20538 77.69772 3014 ft 24 kts 270°
2026-05-08 17:42 13.20540 77.69595 3014 ft 26 kts 270°
2026-05-08 17:42 13.20542 77.69406 3013 ft 28 kts 270°
2026-05-08 17:42 13.20543 77.69221 3013 ft 29 kts 270°
2026-05-08 17:43 13.20545 77.69068 3013 ft 30 kts 270°
2026-05-08 17:43 13.20546 77.68847 3013 ft 32 kts 270°
2026-05-08 17:43 13.20549 77.68655 3014 ft 11 kts 281°
2026-05-08 17:43 13.20607 77.68617 3018 ft 0 kts 358°
2026-05-08 17:45 13.20609 77.68617 3017 ft 2 kts 358°
2026-05-08 17:45 13.20649 77.68616 3014 ft 11 kts 359°
2026-05-08 17:45 13.20716 77.68656 3014 ft 15 kts 72°
2026-05-08 17:45 13.20719 77.68686 3014 ft 0 kts 90°
2026-05-08 17:47 13.20719 77.68721 3014 ft 24 kts 90°
2026-05-08 17:47 13.20716 77.69178 3014 ft 101 kts 90°
2026-05-08 17:47 13.20706 77.70131 3035 ft 160 kts 90°
2026-05-08 17:47 13.20695 77.70931 3227 ft 180 kts 91°
2026-05-08 17:48 13.21012 77.72622 4334 ft 175 kts 53°
2026-05-08 17:48 13.22013 77.73330 5182 ft 185 kts 23°
2026-05-08 17:48 13.23341 77.73510 5764 ft 205 kts
2026-05-08 17:48 13.24829 77.73152 6149 ft 238 kts 341°
2026-05-08 17:49 13.26326 77.72224 6609 ft 266 kts 323°
2026-05-08 17:49 13.27618 77.70759 7111 ft 288 kts 307°
2026-05-08 17:49 13.28925 77.69174 7816 ft 290 kts 325°
2026-05-08 17:49 13.30722 77.68326 8712 ft 286 kts 352°
2026-05-08 17:50 13.32681 77.68419 9570 ft 284 kts 19°
2026-05-08 17:50 13.34385 77.69424 10336 ft 288 kts 43°
2026-05-08 17:50 13.35542 77.71148 10830 ft 304 kts 69°
2026-05-08 17:50 13.35872 77.73335 11426 ft 318 kts 92°
2026-05-08 17:51 13.35291 77.75551 12193 ft 327 kts 115°
2026-05-08 17:51 13.33873 77.77398 13027 ft 337 kts 139°
2026-05-08 17:51 13.31958 77.78764 13867 ft 342 kts 143°
2026-05-08 17:51 13.29998 77.80186 14620 ft 347 kts 143°
2026-05-08 17:52 13.28016 77.81623 15443 ft 351 kts 143°
2026-05-08 17:52 13.26012 77.83078 16222 ft 355 kts 143°
2026-05-08 17:52 13.21931 77.86040 17772 ft 362 kts 144°
2026-05-08 17:53 13.19894 77.87575 18485 ft 365 kts 138°
2026-05-08 17:53 13.18248 77.89575 18799 ft 368 kts 120°
2026-05-08 17:53 13.17261 77.91984 18934 ft 367 kts 103°
2026-05-08 17:53 13.16749 77.94569 18979 ft 372 kts 101°
2026-05-08 17:54 13.16260 77.97183 18996 ft 374 kts 100°
2026-05-08 17:54 13.15787 77.99813 19006 ft 374 kts 99°
2026-05-08 17:54 13.15327 78.02445 19004 ft 374 kts 99°
2026-05-08 17:54 13.14874 78.05074 19012 ft 374 kts 99°
2026-05-08 17:55 13.14422 78.07711 19003 ft 375 kts 99°
2026-05-08 17:55 13.13972 78.10345 19011 ft 375 kts 99°
2026-05-08 17:55 13.13527 78.12948 19003 ft 375 kts 99°
2026-05-08 17:55 13.13077 78.15580 19007 ft 375 kts 99°
2026-05-08 17:56 13.12626 78.18220 19005 ft 375 kts 99°
2026-05-08 17:56 13.12175 78.20855 19000 ft 375 kts 99°
2026-05-08 17:56 13.11724 78.23490 19004 ft 375 kts 99°
2026-05-08 17:56 13.11272 78.26128 18998 ft 376 kts 99°
2026-05-08 17:57 13.10820 78.28765 19002 ft 376 kts 99°
2026-05-08 17:57 13.10368 78.31402 19000 ft 376 kts 99°
2026-05-08 17:57 13.09914 78.34043 18993 ft 376 kts 99°
2026-05-08 17:57 13.09461 78.36686 18999 ft 376 kts 99°
2026-05-08 17:58 13.09007 78.39322 18996 ft 376 kts 99°
2026-05-08 17:58 13.08553 78.41966 18991 ft 376 kts 99°
2026-05-08 17:58 13.08099 78.44604 18993 ft 376 kts 99°
2026-05-08 17:58 13.07644 78.47243 18993 ft 376 kts 99°
2026-05-08 17:59 13.07190 78.49881 18992 ft 376 kts 99°
2026-05-08 17:59 13.06734 78.52524 18978 ft 376 kts 99°
2026-05-08 17:59 13.06279 78.55164 18981 ft 376 kts 99°
2026-05-08 17:59 13.05822 78.57809 18986 ft 376 kts 99°
2026-05-08 18:00 13.05366 78.60446 18972 ft 376 kts 99°
2026-05-08 18:00 13.04459 78.65698 18968 ft 376 kts 99°
2026-05-08 18:00 13.04002 78.68336 18969 ft 376 kts 99°
2026-05-08 18:01 13.03545 78.70978 18970 ft 376 kts 99°
2026-05-08 18:01 13.03086 78.73623 18961 ft 376 kts 99°
2026-05-08 18:01 13.02628 78.76266 18963 ft 376 kts 99°
2026-05-08 18:01 13.02171 78.78902 18959 ft 376 kts 99°
2026-05-08 18:02 13.01712 78.81546 18951 ft 376 kts 99°
2026-05-08 18:02 13.01407 78.83300 18952 ft 376 kts 99°
2026-05-08 18:02 13.00794 78.86832 18949 ft 376 kts 99°
2026-05-08 18:02 13.00334 78.89474 18947 ft 376 kts 99°
2026-05-08 18:03 12.99876 78.92108 18943 ft 376 kts 99°
2026-05-08 18:03 12.99418 78.94739 18934 ft 376 kts 99°
2026-05-08 18:03 12.98957 78.97380 18935 ft 376 kts 99°
2026-05-08 18:03 12.98498 79.00017 18932 ft 376 kts 99°
2026-05-08 18:04 12.98043 79.02622 18931 ft 376 kts 99°
2026-05-08 18:04 12.97584 79.05258 18939 ft 376 kts 99°
2026-05-08 18:04 12.97124 79.07893 18932 ft 376 kts 99°
2026-05-08 18:04 12.96839 79.10553 18921 ft 375 kts 88°
2026-05-08 18:05 12.96911 79.13235 18921 ft 375 kts 88°
2026-05-08 18:05 12.96964 79.15908 18679 ft 375 kts 88°
2026-05-08 18:05 12.97019 79.18622 17916 ft 385 kts 88°
2026-05-08 18:05 12.97074 79.21385 17218 ft 388 kts 88°
2026-05-08 18:06 12.97128 79.24141 16756 ft 385 kts 88°
2026-05-08 18:06 12.97181 79.26865 16365 ft 380 kts 88°
2026-05-08 18:06 12.97234 79.29558 15976 ft 375 kts 88°
2026-05-08 18:06 12.97285 79.32216 15601 ft 370 kts 88°
2026-05-08 18:07 12.97336 79.34835 15224 ft 366 kts 88°
2026-05-08 18:07 12.97386 79.37429 14850 ft 361 kts 88°
2026-05-08 18:07 12.97435 79.39990 14480 ft 358 kts 88°
2026-05-08 18:07 12.97483 79.42495 14118 ft 354 kts 87°
2026-05-08 18:08 12.97530 79.45009 13755 ft 351 kts 87°
2026-05-08 18:08 12.97577 79.47498 13355 ft 347 kts 87°
2026-05-08 18:08 12.97622 79.49965 12974 ft 343 kts 87°
2026-05-08 18:08 12.97667 79.52395 12614 ft 339 kts 87°
2026-05-08 18:09 12.97712 79.54791 12270 ft 334 kts 88°
2026-05-08 18:09 12.97755 79.57155 11920 ft 330 kts 88°
2026-05-08 18:09 12.97798 79.59497 11584 ft 326 kts 88°
2026-05-08 18:09 12.97841 79.61805 11246 ft 322 kts 88°
2026-05-08 18:10 12.97882 79.64057 10921 ft 318 kts 88°
2026-05-08 18:10 12.97922 79.66314 10588 ft 315 kts 88°
2026-05-08 18:10 12.97963 79.68543 10264 ft 311 kts 88°
2026-05-08 18:10 12.98002 79.70742 10032 ft 305 kts 88°
2026-05-08 18:11 12.98040 79.72885 9853 ft 297 kts 88°
2026-05-08 18:11 12.98077 79.74986 9534 ft 294 kts 88°
2026-05-08 18:11 12.98114 79.77074 9195 ft 291 kts 88°
2026-05-08 18:11 12.98133 79.79135 8872 ft 288 kts 92°
2026-05-08 18:12 12.97630 79.81134 8242 ft 297 kts 116°
2026-05-08 18:12 12.96312 79.82814 7506 ft 312 kts 139°
2026-05-08 18:12 12.94357 79.83868 6796 ft 326 kts 161°
2026-05-08 18:12 12.92116 79.84398 6088 ft 335 kts 166°
2026-05-08 18:13 12.89820 79.84909 5344 ft 340 kts 160°
2026-05-08 18:13 12.87747 79.86052 4611 ft 341 kts 139°
2026-05-08 18:13 12.86222 79.87908 3880 ft 342 kts 118°
2026-05-08 18:13 12.85467 79.90213 3171 ft 343 kts 97°
2026-05-08 18:14 12.85368 79.92649 2651 ft 340 kts 90°
2026-05-08 18:14 12.85572 79.94990 2577 ft 322 kts 75°
2026-05-08 18:14 12.86548 79.96971 2538 ft 306 kts 52°
2026-05-08 18:14 12.88129 79.98299 2489 ft 294 kts 28°
2026-05-08 18:15 12.90042 79.98886 2436 ft 282 kts 12°
2026-05-08 18:15 12.91823 79.99549 2391 ft 265 kts 34°
2026-05-08 18:15 12.93075 80.00831 2374 ft 248 kts 60°
2026-05-08 18:15 12.93665 80.02401 2375 ft 225 kts 75°
2026-05-08 18:16 12.94128 80.03860 2308 ft 204 kts 70°
2026-05-08 18:16 12.94605 80.05122 2116 ft 177 kts 69°
2026-05-08 18:16 12.95019 80.06220 1892 ft 152 kts 69°
2026-05-08 18:16 12.95375 80.07173 1683 ft 139 kts 69°
2026-05-08 18:17 12.95718 80.08091 1516 ft 137 kts 69°
2026-05-08 18:17 12.96058 80.08996 1305 ft 136 kts 69°
2026-05-08 18:17 12.96400 80.09910 1141 ft 137 kts 69°
2026-05-08 18:17 12.96739 80.10820 970 ft 138 kts 68°
2026-05-08 18:18 12.97078 80.11725 802 ft 138 kts 69°
2026-05-08 18:18 12.97423 80.12648 634 ft 138 kts 69°
2026-05-08 18:18 12.97768 80.13571 432 ft 138 kts 70°
2026-05-08 18:18 12.98116 80.14489 270 ft 139 kts 69°
2026-05-08 18:19 12.98462 80.15415 105 ft 139 kts 72°
2026-05-08 18:19 12.98805 80.16301 53 ft 123 kts 75°
2026-05-08 18:19 12.98982 80.16814 52 ft 107 kts 66°
2026-05-08 18:19 12.99262 80.17553 57 ft 46 kts 69°
2026-05-08 18:20 12.99272 80.17651 57 ft 14 kts 129°
2026-05-08 18:20 12.99181 80.17694 57 ft 16 kts 171°
2026-05-08 18:20 12.99113 80.17650 56 ft 10 kts 250°
2026-05-08 18:20 12.99112 80.17645 56 ft 0 kts 250°
2026-05-08 18:21 12.99111 80.17644 56 ft 1 kts 250°
2026-05-08 18:21 12.99104 80.17622 54 ft 6 kts 250°
2026-05-08 18:21 12.99083 80.17566 56 ft 11 kts 249°
2026-05-08 18:22 12.99050 80.17477 58 ft 16 kts 249°
2026-05-08 18:22 12.99002 80.17349 55 ft 22 kts 249°
2026-05-08 18:22 12.98929 80.17192 53 ft 27 kts 245°
2026-05-08 18:22 12.98856 80.17002 52 ft 30 kts 248°
2026-05-08 18:23 12.98778 80.16794 54 ft 31 kts 248°
2026-05-08 18:23 12.98672 80.16751 56 ft 19 kts 164°
2026-05-08 18:23 12.98585 80.16743 52 ft 12 kts 232°
2026-05-08 18:23 12.98551 80.16658 55 ft 14 kts 249°
2026-05-08 18:24 12.98512 80.16551 53 ft 18 kts 249°
2026-05-08 18:24 12.98466 80.16423 55 ft 21 kts 250°
2026-05-08 18:24 12.98447 80.16372 55 ft 0 kts 240°
2026-05-08 18:24 12.98444 80.16371 55 ft 0 kts 213°
2026-05-08 18:25 12.98440 80.16371 54 ft 1 kts 181°
2026-05-08 18:25 12.98420 80.16374 56 ft 4 kts 169°
2026-05-08 18:25 12.98387 80.16384 53 ft 1 kts 158°
2026-05-08 18:25 12.98377 80.16388 56 ft 0 kts 159°